TimeCST,TemperatureF,Dew PointF,Humidity,Sea Level PressureIn,VisibilityMPH,Wind Direction,Wind SpeedMPH,Gust SpeedMPH,PrecipitationIn,Events,Conditions,WindDirDegrees,DateUTC
12:15 AM,50.4,48.0,92,29.86,0.2,West,3.5,-,N/A,Fog,Fog,270,2012-12-02 06:15:00
12:35 AM,46.9,44.6,92,29.86,0.2,West,5.8,-,N/A,Fog,Fog,260,2012-12-02 06:35:00
12:55 AM,47.3,45.1,92,29.85,0.2,West,4.6,-,N/A,Fog,Fog,260,2012-12-02 06:55:00
1:15 AM,45.7,43.7,93,29.86,0.2,West,8.1,-,N/A,Fog,Fog,260,2012-12-02 07:15:00
1:35 AM,47.3,45.3,93,29.87,0.2,West,8.1,-,N/A,Fog,Fog,270,2012-12-02 07:35:00
1:55 AM,47.5,45.5,93,29.87,0.2,West,6.9,-,N/A,Fog,Fog,280,2012-12-02 07:55:00
2:15 AM,46.8,44.8,93,29.88,0.2,West,6.9,-,N/A,Fog,Fog,280,2012-12-02 08:15:00
2:35 AM,45.5,43.5,93,29.90,0.2,West,5.8,-,N/A,Fog,Fog,280,2012-12-02 08:35:00
2:55 AM,45.5,43.5,93,29.90,0.2,West,4.6,-,N/A,Fog,Fog,280,2012-12-02 08:55:00
3:15 AM,46.2,44.1,92,29.90,0.2,WNW,4.6,-,N/A,Fog,Fog,290,2012-12-02 09:15:00
3:35 AM,47.3,45.3,93,29.91,1.2,NW,6.9,-,N/A,,Overcast,320,2012-12-02 09:35:00
3:55 AM,48.2,46.2,93,29.91,0.5,NNW,5.8,-,N/A,Fog,Fog,330,2012-12-02 09:55:00
4:15 AM,48.2,45.9,92,29.91,0.2,NNW,6.9,-,N/A,Fog,Fog,330,2012-12-02 10:15:00
4:35 AM,47.1,45.0,92,29.92,0.2,NNW,9.2,-,N/A,Fog,Fog,340,2012-12-02 10:35:00
4:55 AM,45.5,43.5,93,29.93,0.2,NNW,4.6,-,N/A,Fog,Fog,340,2012-12-02 10:55:00
5:15 AM,44.6,42.8,93,29.93,0.2,NNW,4.6,-,N/A,Fog,Fog,330,2012-12-02 11:15:00
5:35 AM,43.3,41.5,93,29.94,0.2,NNW,3.5,-,N/A,Fog,Fog,330,2012-12-02 11:35:00
5:55 AM,43.5,41.7,93,29.95,0.2,NNW,3.5,-,N/A,Fog,Fog,330,2012-12-02 11:55:00
6:15 AM,42.8,41.0,93,29.96,0.2,NNW,3.5,-,N/A,Fog,Fog,330,2012-12-02 12:15:00
6:35 AM,42.3,40.5,93,29.96,0.2,Calm,Calm,-,N/A,Fog,Fog,0,2012-12-02 12:35:00
7:15 AM,41.0,39.4,94,29.98,0.2,North,3.5,-,N/A,Fog,Fog,10,2012-12-02 13:15:00
7:35 AM,40.1,38.3,93,29.99,0.2,Calm,Calm,-,N/A,Fog,Fog,0,2012-12-02 13:35:00
7:55 AM,39.7,38.3,95,29.99,0.2,NW,3.5,-,N/A,Fog,Fog,320,2012-12-02 13:55:00
8:15 AM,39.4,37.8,94,30.00,0.2,Calm,Calm,-,N/A,Fog,Fog,0,2012-12-02 14:15:00
8:35 AM,39.4,37.8,94,30.00,0.2,WSW,3.5,-,N/A,Fog,Fog,250,2012-12-02 14:35:00
8:55 AM,39.6,37.9,94,30.02,0.2,WSW,4.6,-,N/A,Fog,Fog,250,2012-12-02 14:55:00
9:15 AM,40.6,39.2,95,30.02,0.2,West,4.6,-,N/A,Fog,Fog,260,2012-12-02 15:15:00
9:35 AM,41.2,39.6,94,30.03,0.2,Calm,Calm,-,N/A,Fog,Fog,0,2012-12-02 15:35:00
9:55 AM,42.1,40.5,94,30.03,0.2,WNW,3.5,-,N/A,Fog,Fog,300,2012-12-02 15:55:00
10:15 AM,42.8,41.0,93,30.03,0.2,Calm,Calm,-,N/A,Fog,Fog,0,2012-12-02 16:15:00
10:35 AM,42.8,41.0,93,30.03,0.5,Calm,Calm,-,N/A,Fog,Fog,0,2012-12-02 16:35:00
10:55 AM,43.0,41.2,93,30.02,0.5,Calm,Calm,-,N/A,Fog,Fog,0,2012-12-02 16:55:00
11:15 AM,44.1,42.3,93,30.01,2.5,SSW,3.5,-,N/A,,Overcast,200,2012-12-02 17:15:00
11:35 AM,45.0,43.2,93,30.00,3.0,South,4.6,-,N/A,,Overcast,170,2012-12-02 17:35:00
11:55 AM,46.4,44.4,93,29.99,4.0,SE,4.6,-,N/A,,Mostly Cloudy,140,2012-12-02 17:55:00
12:15 PM,46.9,45.0,93,29.98,4.0,Calm,Calm,-,N/A,,Overcast,0,2012-12-02 18:15:00
12:35 PM,47.3,45.1,92,29.97,1.8,South,5.8,-,N/A,,Overcast,190,2012-12-02 18:35:00
12:55 PM,47.8,45.5,92,29.97,2.0,SSW,3.5,-,N/A,,Overcast,210,2012-12-02 18:55:00
1:15 PM,47.8,45.3,91,29.96,1.0,South,3.5,-,N/A,,Overcast,180,2012-12-02 19:15:00
1:35 PM,48.6,46.0,91,29.96,1.2,South,5.8,-,N/A,,Overcast,190,2012-12-02 19:35:00
1:55 PM,49.1,46.4,90,29.95,2.5,South,6.9,-,N/A,,Overcast,170,2012-12-02 19:55:00
2:15 PM,50.0,46.8,89,29.95,3.0,South,5.8,-,N/A,,Overcast,170,2012-12-02 20:15:00
2:35 PM,51.3,46.6,84,29.94,4.0,SSE,6.9,-,N/A,,Scattered Clouds,150,2012-12-02 20:35:00
2:55 PM,51.8,46.6,82,29.92,4.0,SE,6.9,-,N/A,,Haze,130,2012-12-02 20:55:00
3:15 PM,52.7,46.6,80,29.92,5.0,ESE,8.1,-,N/A,,Haze,120,2012-12-02 21:15:00
3:35 PM,51.8,46.4,82,29.91,4.0,ESE,9.2,-,N/A,,Haze,110,2012-12-02 21:35:00
3:55 PM,51.8,46.0,81,29.92,4.0,ESE,9.2,-,N/A,,Haze,110,2012-12-02 21:55:00
4:15 PM,50.2,45.5,84,29.93,3.0,East,8.1,-,N/A,,Clear,100,2012-12-02 22:15:00
4:35 PM,48.7,44.8,86,29.93,2.5,East,8.1,-,N/A,,Clear,100,2012-12-02 22:35:00
4:55 PM,48.7,45.9,90,29.91,0.2,ESE,16.1,-,N/A,Fog,Fog,110,2012-12-02 22:55:00
5:15 PM,48.6,46.0,91,29.92,0.2,ESE,13.8,-,N/A,Fog,Fog,120,2012-12-02 23:15:00
5:35 PM,48.7,46.4,92,29.92,0.2,ESE,11.5,-,N/A,,Light Drizzle,120,2012-12-02 23:35:00
5:55 PM,49.3,46.9,92,29.92,0.2,SE,12.7,16.1,N/A,Fog,Fog,130,2012-12-02 23:55:00
6:15 PM,49.5,47.3,92,29.92,0.2,SE,11.5,-,N/A,Fog,Fog,140,2012-12-03 00:15:00
6:35 PM,49.6,47.3,92,29.92,0.2,SE,12.7,-,N/A,Fog,Fog,140,2012-12-03 00:35:00
7:15 PM,50.4,48.2,92,29.90,2.0,SE,13.8,-,N/A,,Overcast,140,2012-12-03 01:15:00
7:35 PM,50.5,47.8,90,29.90,2.5,SSE,13.8,-,N/A,,Overcast,150,2012-12-03 01:35:00
7:55 PM,50.0,47.1,90,29.90,1.5,SSE,16.1,-,N/A,,Overcast,150,2012-12-03 01:55:00
8:15 PM,49.6,46.8,90,29.89,1.8,SSE,16.1,-,N/A,,Overcast,160,2012-12-03 02:15:00
8:35 PM,49.5,46.6,90,29.89,2.0,SSE,15.0,-,N/A,,Overcast,160,2012-12-03 02:35:00
8:55 PM,49.3,46.4,90,29.89,2.0,SSE,12.7,-,N/A,,Overcast,160,2012-12-03 02:55:00
9:15 PM,49.5,46.6,90,29.89,2.0,SSE,12.7,-,N/A,,Overcast,150,2012-12-03 03:15:00
9:35 PM,49.5,46.6,90,29.89,2.0,SE,11.5,17.3,N/A,,Overcast,140,2012-12-03 03:35:00
9:55 PM,49.3,46.4,90,29.89,2.0,SE,12.7,-,N/A,,Overcast,140,2012-12-03 03:55:00
10:15 PM,49.3,46.4,90,29.88,2.0,SSE,13.8,-,N/A,,Overcast,150,2012-12-03 04:15:00
10:35 PM,49.3,46.6,90,29.87,1.2,SSE,15.0,-,N/A,,Overcast,150,2012-12-03 04:35:00
10:55 PM,49.1,46.4,90,29.86,1.5,SSE,15.0,18.4,N/A,,Overcast,160,2012-12-03 04:55:00
11:15 PM,49.1,46.4,90,29.86,1.2,SSE,17.3,-,N/A,,Overcast,150,2012-12-03 05:15:00
11:35 PM,48.7,46.4,92,29.85,0.8,SSE,12.7,-,N/A,,Overcast,150,2012-12-03 05:35:00
11:55 PM,48.7,46.4,92,29.85,0.5,SSE,11.5,-,N/A,Fog,Fog,150,2012-12-03 05:55:00